[[{"header":{"parameterUnit":"m.s-1","parameterCategory":1,"la1":30.2991,"la2":30.254,"lo1":-89.0895,"lo2":-89.0444,"dy":0.0017,"dx":0.0017,"nx":28,"ny":28,"refTime":"2024-02-03T03:00:00:Z","depth":0,"parameterNumber":2,"parameterNumberName":"U-component_of_WINDS"},"data":[0,0,0,0,0,0,0,0,0,0,0,0,0,0,0,0,0,0,0,0,0,0,0,0,0,0,0,0,0,0,0,0,0,0,0,0,0,0,0,0,0,0,0,0,0,0,0,0,0,0,0,0,0,0,0,0,0,0,-3.9102,-3.9101,0,-3.9046,-3.9045,-3.9045,-3.8941,-3.8939,-3.8937,-3.8935,-3.888,-3.888,-3.888,0,0,0,0,0,0,0,0,0,0,0,0,0,-3.9123,-3.9123,-3.9102,-3.9101,-3.9101,-3.9046,-3.9045,-3.9045,-3.8942,-3.8939,-3.8937,-3.8934,-3.888,-3.888,-3.888,0,0,0,0,0,0,0,0,0,0,0,0,0,-3.9095,-3.9123,-3.9102,-3.9043,-3.9037,-3.9046,-3.9045,-3.9044,-3.8942,-3.8939,-3.8936,-3.8933,-3.8879,-3.888,-3.888,-3.8944,0,0,-3.8882,-3.8882,0,0,0,0,0,0,0,0,-3.9097,-3.9094,-3.9052,-3.9047,-3.904,-3.8997,-3.9032,-3.9011,-3.8943,-3.8978,-3.8935,-3.8932,-3.8921,-3.8918,-3.8914,-3.8941,-3.8939,-3.8882,-3.8883,-3.8883,-3.8883,0,0,0,0,0,0,0,-3.9099,-3.9096,-3.908,-3.9052,-3.9044,-3.902,-3.9012,-3.9028,-3.8967,-3.8975,-3.8967,-3.8962,-3.8918,-3.8914,-3.8912,-3.8938,-3.8882,-3.8883,-3.8883,-3.8883,-3.9016,-3.9019,0,0,0,0,0,0,-3.9109,-3.9098,-3.9082,-3.9078,-3.9062,-3.9022,-3.9014,-3.9014,-3.8967,-3.8957,-3.8964,-3.8957,-3.8915,-3.8912,-3.891,-3.8982,-3.8883,-3.8883,-3.8884,-3.9013,-3.9017,-3.902,0,0,0,0,0,0,-3.911,-3.9109,-3.9084,-3.9086,-3.9081,-3.9025,-3.9026,-3.9015,-3.9011,-3.8959,-3.8948,-3.8972,-3.8912,-3.8909,-3.8937,-3.8979,-3.8884,-3.8884,-3.9009,-3.9014,-3.9019,-3.9127,0,0,0,0,0,0,-3.9111,-3.9109,-3.9132,-3.9088,-3.9082,-3.9111,-3.9029,-3.9016,-3.9012,-3.9002,-3.8963,-3.8954,-3.891,-3.8936,-3.8937,-3.8978,-3.8885,-3.9005,-3.9012,-3.9017,-3.9119,-3.9134,-3.9148,0,0,0,0,0,-3.9112,-3.9165,-3.9134,-3.9132,-3.9109,-3.9114,-3.911,-3.9058,-3.9016,-3.9039,-3.9006,-3.8955,-3.8974,-3.894,-3.894,-3.8981,-3.9002,-3.901,-3.9017,-3.9113,-3.9131,-3.9147,0,0,0,0,0,0,-3.9216,-3.9158,-3.9123,-3.9163,-3.9144,-3.9096,-3.9123,-3.9079,-3.9072,-3.9063,-3.8999,-3.8991,-3.9028,-3.9007,-3.897,-3.9041,-3.898,-3.8988,-3.9053,-3.9071,-3.9085,-3.9089,-3.8885,0,0,0,0,0,-3.9244,-3.9252,-3.9201,-3.9241,-3.9233,-3.9181,-3.918,-3.9142,-3.912,-3.9112,-3.908,-3.9062,-3.9063,-3.9066,-3.9065,-3.9116,-3.9106,-3.9145,-3.9159,-3.9171,-3.9178,-3.9205,-3.9222,-3.9044,-3.9044,-3.9044,0,0,-3.9301,-3.927,-3.9279,-3.9261,-3.9242,-3.9253,-3.9174,-3.9188,-3.9196,-3.9114,-3.9138,-3.9115,-3.909,-3.913,-3.9146,-3.9114,-3.9225,-3.918,-3.919,-3.9191,-3.9214,-3.9231,-3.9246,-3.9049,-3.9048,-3.9047,0,0,-3.941,-3.9388,-3.9419,-3.9402,-3.9374,-3.9338,-3.9346,-3.9305,-3.9287,-3.931,-3.9249,-3.9257,-3.9262,-3.9247,-3.924,-3.9346,-3.9299,-3.9347,-3.9422,-3.9449,-3.9463,-3.9475,-3.9514,-3.9528,-3.9355,-3.9355,-3.9355,0,-3.9485,-3.9498,-3.9441,-3.9459,-3.9454,-3.938,-3.9412,-3.9398,-3.9372,-3.937,-3.9335,-3.934,-3.9317,-3.9353,-3.938,-3.9376,-3.9384,-3.9351,-3.9466,-3.9477,-3.9488,-3.9524,-3.9538,-3.9361,-3.936,-3.936,-3.9359,0,-3.9591,-3.9601,-3.963,-3.9606,-3.9604,-3.963,-3.9578,-3.9582,-3.9545,-3.9514,-3.9539,-3.9511,-3.9503,-3.9509,-3.9472,-3.954,-3.9521,-3.9477,-3.9414,-3.9512,-3.9544,-3.9558,-3.937,-3.9368,-3.9366,-3.9364,0,0,-3.9763,-3.9709,-3.972,-3.9709,-3.9674,-3.9681,-3.9704,-3.9696,-3.9702,-3.9687,-3.9705,-3.9711,-3.967,-3.9662,-3.9624,-3.9648,-3.9735,-3.96,-3.9598,-3.9626,-3.9809,-3.9843,-3.986,-3.9704,-3.9706,-3.9708,-3.9811,0,-3.9865,-3.99,-3.985,-3.9897,-3.9906,-3.9837,-3.9857,-3.9838,-3.9811,-3.9815,-3.9785,-3.979,-3.9736,-3.9731,-3.9751,-3.972,-3.9771,-3.9712,-3.9721,-3.9722,-3.9729,-3.9877,-3.9912,-4.0011,-3.9824,-3.9826,-3.9828,0,-3.9988,-3.9979,-4.0026,-3.9989,-3.9991,-4.001,-4.0,-4.0005,-3.9983,-3.9961,-3.9954,-3.9908,-3.9929,-3.9869,-3.9898,-3.9859,-3.986,-3.9846,-3.9848,-3.9847,-3.978,-3.988,-4.0041,-4.0056,-3.9847,-3.9846,-3.9844,0,-4.011,-4.0109,-4.0137,-4.013,-4.0087,-4.0103,-4.0086,-4.0061,-4.006,-4.0051,-4.005,-4.0045,-4.0042,-4.0039,-3.9993,-3.9954,-4.0028,-3.9964,-4.0011,-4.0013,-4.003,-4.0029,-4.0194,-4.0031,-4.0031,-4.0031,-4.003,0,-4.0228,-4.026,-4.0192,-4.0209,-4.0243,-4.0187,-4.0223,-4.0199,-4.0178,-4.019,-4.0131,-4.0144,-4.0083,-4.0091,-4.0055,-4.0085,-4.0084,-4.0068,-4.0058,-4.0073,-4.0076,-4.0073,-4.0065,-4.0034,-4.0034,-4.0033,-4.0032,0,-4.0369,-4.0325,-4.0351,-4.0309,-4.0299,-4.0327,-4.0291,-4.0306,-4.0275,-4.0292,-4.0293,-4.0245,-4.025,-4.0205,-4.0202,-4.0178,-4.0225,-4.0203,-4.0232,-4.0225,-4.0276,-4.0272,-4.0444,-4.0464,-4.0289,-4.0291,-4.0292,0,-4.0448,-4.0471,-4.0431,-4.0435,-4.0421,-4.0428,-4.0427,-4.0373,-4.0375,-4.0353,-4.0371,-4.0372,-4.0369,-4.0382,-4.0347,-4.0345,-4.0323,-4.0384,-4.0322,-4.0337,-4.0324,-4.0324,-4.0326,-4.0396,-4.0399,-4.04,-4.0402,0,-4.0592,-4.0569,-4.0569,-4.0562,-4.0563,-4.0555,-4.0543,-4.055,-4.0492,-4.0497,-4.0501,-4.05,-4.0497,-4.0499,-4.0491,-4.0474,-4.0429,-4.0422,-4.0432,-4.0448,-4.0464,-4.0456,-4.0267,-4.0418,-4.0416,-4.0415,-4.0414,-4.0413,-4.0704,-4.0722,-4.0697,-4.07,-4.0685,-4.0676,-4.0688,-4.0659,-4.0662,-4.0656,-4.0624,-4.0635,-4.0614,-4.0598,-4.0586,-4.0595,-4.0566,-4.0582,-4.0586,-4.059,-4.06,-4.0463,-4.0593,-4.0593,-4.0592,-4.0592,-4.0592,0,-4.0846,-4.0827,-4.083,-4.0815,-4.0818,-4.0775,-4.076,-4.0765,-4.0776,-4.076,-4.0759,-4.0766,-4.0768,-4.0734,-4.0732,-4.0745,-4.0725,-4.0747,-4.0745,-4.0742,-4.0625,-4.0616,-4.0764,-4.0764,-4.0764,-4.0764,-4.0764,-4.0764,-4.0919,-4.0947,-4.0922,-4.0943,-4.0923,-4.0933,-4.0929,-4.0921,-4.0908,-4.0917,-4.0919,-4.0897,-4.0874,-4.087,-4.0871,-4.0861,-4.0863,-4.0893,-4.0876,-4.0767,-4.075,-4.0734,-4.0726,-4.0893,-4.0894,-4.0992,-4.0993,-4.0993]},{"header":{"parameterUnit":"m.s-1","parameterCategory":1,"la1":30.2991,"la2":30.254,"lo1":-89.0895,"lo2":-89.0444,"dy":0.0017,"dx":0.0017,"nx":28,"ny":28,"refTime":"2024-02-03T03:00:00:Z","depth":0,"parameterNumber":3,"parameterNumberName":"V-component_of_WINDS"},"data":[0,0,0,0,0,0,0,0,0,0,0,0,0,0,0,0,0,0,0,0,0,0,0,0,0,0,0,0,0,0,0,0,0,0,0,0,0,0,0,0,0,0,0,0,0,0,0,0,0,0,0,0,0,0,0,0,0,0,0.8772,0.8773,0,0.8841,0.8842,0.8842,0.8929,0.8931,0.8932,0.8933,0.9003,0.9003,0.9004,0,0,0,0,0,0,0,0,0,0,0,0,0,0.8717,0.8718,0.8772,0.8773,0.8774,0.8841,0.8842,0.8843,0.8929,0.8931,0.8932,0.8934,0.9003,0.9003,0.9004,0,0,0,0,0,0,0,0,0,0,0,0,0,0.8759,0.8718,0.8772,0.8825,0.8831,0.884,0.8842,0.8843,0.8929,0.8931,0.8933,0.8935,0.9002,0.9003,0.9004,0.8967,0,0,0.9007,0.9007,0,0,0,0,0,0,0,0,0.8756,0.8761,0.8817,0.8822,0.8828,0.8879,0.8848,0.8884,0.8928,0.8891,0.8933,0.8936,0.896,0.8964,0.8972,0.897,0.8973,0.9007,0.9007,0.9007,0.9008,0,0,0,0,0,0,0,0.8753,0.8758,0.88,0.8817,0.8824,0.8846,0.8854,0.8855,0.8913,0.8895,0.8901,0.8908,0.8963,0.8971,0.8975,0.8974,0.9007,0.9007,0.9008,0.9008,0.8947,0.8945,0,0,0,0,0,0,0.8743,0.8755,0.8797,0.8802,0.8797,0.8845,0.8854,0.886,0.8913,0.8923,0.8906,0.8912,0.8969,0.8974,0.8977,0.894,0.9007,0.9008,0.9009,0.8949,0.8947,0.8945,0,0,0,0,0,0,0.8741,0.8745,0.8795,0.878,0.8788,0.8844,0.885,0.886,0.8869,0.8922,0.8933,0.8904,0.8971,0.8976,0.897,0.8943,0.9009,0.9009,0.8952,0.8949,0.8946,0.8862,0,0,0,0,0,0,0.8739,0.8744,0.8731,0.8779,0.8789,0.8785,0.8848,0.886,0.887,0.8878,0.8923,0.8932,0.8973,0.8968,0.897,0.8945,0.901,0.8955,0.895,0.8947,0.8867,0.8856,0.8846,0,0,0,0,0,0.8737,0.8704,0.873,0.8734,0.8773,0.8783,0.8789,0.8837,0.8867,0.8855,0.8889,0.8931,0.8945,0.8966,0.897,0.8945,0.8957,0.8952,0.8947,0.8872,0.8858,0.8847,0,0,0,0,0,0,0.865,0.8711,0.874,0.8722,0.8747,0.8798,0.8783,0.882,0.8837,0.8844,0.8902,0.8911,0.8898,0.892,0.8943,0.8913,0.8957,0.8953,0.8899,0.8886,0.8876,0.8872,0.9011,0,0,0,0,0,0.8629,0.8633,0.8686,0.8664,0.8675,0.8727,0.8733,0.8768,0.8796,0.8807,0.8841,0.8866,0.8877,0.8883,0.8895,0.887,0.8882,0.8855,0.8844,0.8836,0.8832,0.8822,0.8811,0.8929,0.8929,0.8929,0,0,0.8585,0.8619,0.8618,0.8648,0.8671,0.8674,0.8735,0.8735,0.8738,0.8807,0.8803,0.8828,0.8861,0.8846,0.884,0.8864,0.8802,0.883,0.8822,0.8823,0.8816,0.8805,0.8795,0.8926,0.8926,0.8927,0,0,0.8508,0.8533,0.8519,0.8541,0.8576,0.8611,0.8607,0.8652,0.8672,0.8669,0.8722,0.8726,0.8742,0.8764,0.8777,0.8708,0.8748,0.871,0.8657,0.8647,0.8638,0.863,0.8607,0.8598,0.8706,0.8706,0.8705,0,0.8449,0.8456,0.8507,0.8504,0.8517,0.8579,0.8566,0.8585,0.8621,0.8629,0.8655,0.8678,0.8704,0.8695,0.8679,0.8686,0.8685,0.8706,0.8635,0.8628,0.8621,0.86,0.8591,0.8701,0.8702,0.8702,0.8702,0,0.8383,0.8386,0.8371,0.8405,0.8416,0.8407,0.8458,0.8462,0.8496,0.8528,0.8525,0.8558,0.858,0.858,0.8612,0.8576,0.859,0.8624,0.867,0.8604,0.8586,0.8578,0.8694,0.8696,0.8697,0.8699,0,0,0.8253,0.8317,0.831,0.8328,0.8371,0.8375,0.8369,0.839,0.8394,0.8417,0.8415,0.8428,0.8461,0.8475,0.8511,0.8502,0.8447,0.8538,0.854,0.8521,0.8411,0.8386,0.8376,0.8473,0.8472,0.8471,0.8409,0,0.8185,0.818,0.8226,0.8209,0.8214,0.8274,0.827,0.8296,0.8325,0.8334,0.8367,0.8376,0.8417,0.8427,0.842,0.8455,0.8426,0.846,0.8473,0.8473,0.8465,0.8366,0.8339,0.828,0.8402,0.8401,0.84,0,0.8105,0.8124,0.8108,0.8153,0.8157,0.8152,0.8176,0.8183,0.8214,0.8236,0.8253,0.8294,0.8293,0.8335,0.8336,0.8358,0.8366,0.8383,0.8382,0.8387,0.8433,0.8369,0.8262,0.8253,0.8388,0.8389,0.839,0,0.8014,0.8036,0.803,0.8042,0.8094,0.809,0.8111,0.8144,0.8154,0.8175,0.8183,0.8202,0.8213,0.8228,0.8274,0.83,0.8269,0.8315,0.8289,0.8287,0.8281,0.8281,0.8174,0.8282,0.8282,0.8283,0.8283,0,0.7934,0.7922,0.799,0.7986,0.7975,0.8028,0.8015,0.8042,0.8072,0.8075,0.8127,0.8128,0.8188,0.8196,0.8231,0.8227,0.8231,0.825,0.826,0.8246,0.8244,0.8254,0.826,0.828,0.8281,0.8281,0.8282,0,0.7832,0.7876,0.7873,0.7923,0.7935,0.7925,0.7967,0.7966,0.7999,0.8002,0.8006,0.8058,0.807,0.8117,0.8141,0.8165,0.815,0.8168,0.8139,0.8146,0.8118,0.812,0.8015,0.8005,0.8117,0.8116,0.8115,0,0.7778,0.7771,0.782,0.7825,0.7845,0.7853,0.7864,0.7916,0.7925,0.7961,0.7955,0.7972,0.7989,0.8007,0.8047,0.8066,0.8086,0.8047,0.8089,0.8076,0.8087,0.8088,0.8088,0.8039,0.8037,0.8036,0.8035,0,0.768,0.7703,0.7716,0.7738,0.7749,0.7768,0.7791,0.7793,0.7851,0.7859,0.7873,0.7885,0.791,0.7927,0.7953,0.7975,0.8015,0.8022,0.8017,0.8004,0.7988,0.7998,0.8117,0.8024,0.8025,0.8026,0.8027,0.8027,0.7602,0.7599,0.7633,0.7647,0.7669,0.7689,0.7691,0.7724,0.7736,0.7761,0.7791,0.7801,0.7834,0.7873,0.7892,0.7902,0.7924,0.7916,0.7915,0.7912,0.7907,0.7985,0.7906,0.7907,0.7907,0.7907,0.7908,0,0.7508,0.7533,0.7545,0.7575,0.7586,0.7622,0.7649,0.7656,0.7665,0.7691,0.7707,0.7723,0.774,0.7781,0.7802,0.7802,0.7821,0.7806,0.7807,0.7812,0.7885,0.7888,0.779,0.779,0.779,0.7791,0.7791,0.7791,0.746,0.7457,0.7484,0.7492,0.7518,0.7529,0.7541,0.756,0.7582,0.7598,0.7613,0.7639,0.7672,0.7696,0.7713,0.7725,0.7731,0.7711,0.7728,0.7796,0.7807,0.7818,0.7821,0.7711,0.7711,0.7656,0.7655,0.7655]}]]